Theta_e
359 358 360 360 357 354 361 355 347 353 356 349 351 358 355 356 355 354 353 358 358 358 357 355 352 341 338 342 342 339 338 337 337 337 339 338 337 337 337 336 337 338 335
361 361 360 362 361 357 357 360 350 352 352 357 357 356 358 358 356 356 358 358 358 356 358 356 354 352 348 335 341 340 339 339 337 337 339 339 336 336 336 337 337 335 335
361 362 362 361 363 362 359 356 359 353 353 353 356 360 359 357 358 359 356 357 357 358 356 356 355 352 350 349 338 342 342 339 339 339 340 339 337 337 337 336 336 335 337
361 363 363 363 363 363 363 360 356 359 358 357 355 357 361 359 358 357 357 356 357 355 356 359 357 354 351 350 348 338 342 344 340 342 339 341 341 341 339 339 338 338 338
362 363 364 364 364 363 363 364 363 358 360 360 359 360 359 362 359 358 357 359 359 357 354 353 358 358 356 350 349 344 338 342 344 341 341 340 339 342 344 340 339 338 339
358 362 364 365 365 364 365 364 365 364 361 361 362 360 361 362 362 360 359 360 361 360 359 356 355 359 359 357 352 347 341 339 339 345 340 341 342 340 341 342 340 341 341
355 358 363 364 365 365 365 366 365 366 366 363 363 363 362 362 362 363 362 361 360 361 361 360 358 357 359 359 356 353 349 346 340 337 343 341 340 341 340 342 340 339 338
356 357 357 363 364 365 365 365 366 366 366 367 365 364 364 363 362 363 363 363 361 360 361 361 360 359 358 359 358 356 351 349 348 345 339 339 342 341 340 340 342 339 339
359 360 359 362 363 364 364 365 365 365 365 365 366 366 366 365 365 363 364 364 362 361 361 361 361 361 360 359 359 356 353 351 350 348 347 342 339 339 343 344 343 340 338
360 362 363 362 364 364 365 365 366 366 365 365 366 366 366 366 366 366 365 364 361 361 361 360 361 361 361 361 359 357 354 352 350 347 347 344 343 342 342 342 342 339 338
358 356 359 360 363 365 365 366 366 366 366 366 366 366 367 367 366 367 366 366 363 362 361 360 359 360 361 362 361 358 357 355 352 348 346 345 342 344 346 343 340 340 339
355 360 359 359 360 364 366 367 368 367 367 367 367 368 367 367 368 367 367 367 366 364 363 362 360 359 358 359 361 361 360 357 354 349 346 344 342 340 342 343 341 342 341
345 359 359 359 359 362 363 367 369 368 368 368 368 368 368 368 368 368 368 368 367 367 365 364 364 362 360 358 357 358 359 360 355 353 348 347 343 343 340 340 341 341 340
355 360 364 365 365 365 363 365 369 370 369 369 368 368 367 367 368 367 367 367 368 367 367 366 365 364 363 360 358 356 355 351 354 355 354 351 347 342 340 340 338 339 338
359 366 368 367 367 368 366 368 369 368 369 369 369 368 368 367 366 362 365 365 365 364 362 359 358 359 358 358 356 354 353 352 349 353 354 353 349 343 341 340 339 337 337
368 368 370 368 367 368 366 353 358 365 367 367 367 368 359 360 358 356 356 356 356 356 355 354 355 357 359 359 358 358 353 350 348 349 352 353 350 345 343 340 340 337 337
357 367 364 366 365 368 368 361 342 342 349 350 353 355 353 352 355 355 353 352 352 351 353 355 353 355 358 358 358 355 351 350 348 347 349 350 350 348 343 343 339 337 336
353 353 358 364 362 366 365 367 351 340 339 336 333 335 335 334 334 336 339 341 343 345 347 349 348 347 348 349 348 348 348 347 346 345 341 339 340 339 339 338 337 336 335
352 352 352 351 351 350 351 351 351 349 344 337 335 335 335 333 331 332 334 336 337 338 338 339 338 338 339 338 340 341 342 342 340 339 333 328 332 333 326 334 335 334 332
347 347 346 346 345 343 344 343 342 340 339 337 336 334 335 334 331 331 331 333 333 332 331 332 332 332 333 336 336 338 338 338 338 338 329 332 334 334 334 332 333 330 330
345 346 346 346 344 341 341 341 341 341 340 336 332 330 334 334 333 332 332 333 333 333 334 333 333 334 336 335 336 337 338 337 336 335 336 336 335 334 333 332 331 329 329
344 345 344 341 341 342 339 338 335 335 335 334 333 333 332 334 335 335 334 334 335 336 336 336 336 335 335 336 336 336 336 335 335 336 337 335 334 333 334 332 330 329 328
340 340 340 337 336 335 334 333 333 333 333 334 334 333 334 336 336 334 334 335 335 335 335 336 335 334 335 335 335 336 336 336 336 337 336 335 334 333 331 330 328 326 324
334 334 335 336 334 333 333 332 330 331 330 329 328 328 329 330 329 327 329 331 335 337 335 336 335 335 334 335 335 335 335 335 335 335 335 335 334 334 332 330 329 325 322
327 327 327 328 328 327 325 325 325 324 323 322 322 322 323 323 322 321 322 321 323 331 333 335 335 334 334 334 335 334 333 333 334 333 333 333 332 331 328 323 323 321 321
313 317 322 321 320 321 320 319 318 317 316 316 315 314 314 314 316 319 319 320 320 318 319 323 328 333 334 333 333 333 333 331 332 330 329 327 326 325 323 322 321 319 317
Wind_Speed
39 37 33 34 37 38 32 38 39 32 25 32 26 31 38 37 32 29 29 26 26 25 23 22 21 21 23 19 17 18 17 14 9 8 11 17 20 20 19 17 16 17 15
39 37 37 34 33 37 39 36 36 38 38 28 27 25 32 35 33 32 30 30 29 28 27 25 26 23 24 25 18 23 22 19 17 14 9 22 22 20 19 20 21 18 15
37 37 35 35 35 35 37 40 38 41 41 38 34 28 32 37 36 36 35 35 35 30 33 33 31 29 30 30 29 24 25 25 22 20 16 21 25 23 21 20 18 15 18
39 38 37 37 37 38 37 37 40 39 41 40 41 39 35 38 40 39 37 37 38 38 35 33 37 37 36 35 34 36 29 26 27 25 24 21 21 21 27 26 24 22 18
39 40 41 39 39 37 37 36 38 39 38 43 39 41 41 40 42 43 40 41 41 42 40 40 39 40 40 40 37 37 38 33 28 30 26 23 25 17 31 33 29 26 24
40 41 38 39 38 40 37 38 37 38 39 36 42 40 40 41 42 43 43 39 40 38 41 43 42 39 42 42 43 42 41 40 36 29 26 21 30 34 26 33 33 26 13
41 40 39 40 40 40 40 37 40 39 36 40 39 42 41 43 44 44 47 42 38 39 40 40 41 38 40 43 44 45 45 43 44 39 31 34 31 39 35 32 33 32 20
38 37 39 39 40 39 39 40 39 38 38 38 40 41 42 44 46 46 47 48 40 40 42 43 40 39 38 42 44 47 48 46 47 43 43 38 40 36 35 36 34 31 21
35 33 39 38 38 38 40 39 38 36 37 38 38 38 41 43 42 46 45 48 42 43 40 40 41 41 42 41 42 42 43 49 47 49 48 46 42 37 28 31 29 29 14
33 34 37 38 37 38 39 39 37 38 38 35 37 39 39 41 38 38 43 42 38 40 37 39 41 44 42 43 45 40 40 46 41 39 47 48 47 44 42 35 32 30 21
35 38 33 36 40 41 37 35 35 35 33 33 34 34 35 36 33 33 39 43 43 37 36 38 37 39 43 43 45 46 51 40 38 40 41 45 47 43 42 42 39 38 32
14 26 34 37 38 33 36 33 31 31 31 30 28 29 31 30 31 32 36 42 42 37 37 37 35 35 36 42 48 54 53 46 38 33 36 37 41 45 47 47 46 43 40
13 16 32 34 36 34 31 30 28 27 27 25 25 24 23 26 27 31 36 36 38 45 42 40 38 38 36 40 45 51 55 55 42 36 35 40 41 49 45 47 49 42 35
13 14 16 29 31 31 31 30 25 22 23 22 21 22 22 24 27 29 31 33 39 42 46 47 46 45 46 45 42 36 47 42 40 41 41 40 38 34 37 41 41 38 33
17 17 18 24 28 28 24 17 23 24 24 23 23 21 22 21 22 17 19 26 30 31 36 37 32 30 31 32 33 36 36 33 36 39 36 38 35 35 40 42 39 35 32
15 12 15 19 22 24 23 14 5 20 23 24 24 26 13 14 15 14 10 8 8 9 12 20 22 23 25 24 25 27 32 34 34 32 36 38 35 36 44 44 44 42 33
16 12 14 16 18 24 24 21 18 17 18 14 8 11 10 7 11 14 13 13 16 14 15 18 21 20 20 22 25 25 25 27 29 28 33 36 38 40 49 53 46 30 20
14 10 7 15 10 20 17 19 22 21 17 15 17 14 14 9 7 5 8 10 3 3 5 7 7 6 10 13 17 22 25 25 23 15 6 8 5 7 8 15 29 26 28
13 3 14 18 20 20 19 22 23 24 21 20 15 13 12 14 14 14 13 8 5 4 1 4 5 7 10 13 15 20 22 22 17 9 6 2 11 21 16 9 20 22 24
4 6 11 14 17 19 20 21 23 24 21 21 15 11 9 9 13 12 12 11 10 6 2 3 6 9 12 15 16 14 14 14 15 18 10 9 11 14 20 23 23 22 21
10 9 12 15 18 19 20 22 20 18 16 19 15 12 10 7 8 7 6 3 1 6 8 10 11 11 12 14 13 11 7 7 9 10 9 9 14 16 22 27 27 23 26
14 11 14 17 21 18 19 20 20 22 23 17 13 11 7 9 8 5 3 7 9 10 10 11 12 12 12 12 11 12 12 15 15 12 15 17 22 26 30 30 22 24 25
18 23 22 23 26 27 24 23 23 24 22 17 13 10 9 9 6 3 3 5 5 6 8 9 9 8 6 5 6 6 6 7 10 13 15 17 18 21 18 20 25 25 27
23 24 27 25 26 26 23 22 25 25 22 19 20 21 23 20 20 22 16 14 6 6 11 6 4 4 2 3 3 1 1 2 6 11 15 15 15 19 14 20 20 24 29
25 26 23 24 21 26 24 21 21 20 20 19 19 20 20 20 21 22 22 22 21 13 9 6 5 5 3 2 6 7 3 7 9 10 11 13 16 19 21 19 23 25 28
30 27 24 25 26 25 23 22 22 21 21 20 20 21 22 22 23 24 25 26 25 22 18 10 6 3 3 1 4 7 7 8 13 9 8 10 14 17 16 14 13 16 21
Wind_Direction
199 202 205 208 213 214 217 221 221 226 225 230 232 221 215 213 215 215 218 221 226 228 224 225 228 228 231 228 224 217 219 224 208 225 235 211 188 202 211 212 214 221 237
197 199 204 206 208 212 216 218 223 220 225 224 232 220 218 217 216 215 217 219 227 229 228 224 229 230 233 234 233 226 222 220 224 228 232 203 206 211 206 200 216 232 232
195 199 203 206 207 211 214 217 219 223 225 227 229 223 218 218 218 217 219 220 223 229 231 230 228 227 231 232 234 234 228 225 221 222 216 201 205 211 205 216 228 239 236
194 198 202 205 208 211 212 215 218 221 225 226 230 228 223 218 220 222 223 223 227 229 232 235 235 231 233 231 231 234 231 229 222 218 220 212 209 223 220 216 218 226 231
193 199 204 205 207 211 213 213 217 219 222 227 226 229 229 228 221 222 224 223 224 228 233 234 238 237 237 239 235 236 235 229 229 226 224 221 228 216 209 217 221 228 229
198 202 203 204 205 209 212 213 215 218 219 222 225 226 226 227 226 224 223 220 222 224 228 234 236 240 240 238 238 241 240 229 227 223 225 219 222 226 223 215 215 219 218
202 204 203 204 204 207 210 210 213 216 216 219 223 224 227 228 228 227 225 222 221 224 226 230 233 233 238 239 239 242 243 243 241 228 221 220 223 224 225 220 213 213 216
203 204 205 203 205 207 209 211 213 214 216 218 221 224 226 230 229 228 229 227 226 227 228 229 230 232 230 234 234 235 236 238 242 238 238 236 237 238 231 230 227 217 211
201 200 203 203 203 205 209 212 213 214 217 221 223 225 227 232 232 229 228 230 230 234 233 233 232 233 232 230 231 229 232 235 238 238 243 244 242 235 227 217 208 186 179
199 201 202 202 204 205 209 211 212 214 218 220 225 227 230 236 235 233 230 230 236 239 240 241 238 236 234 231 229 226 229 233 229 229 234 235 239 239 233 227 210 190 192
211 214 211 211 212 213 210 209 209 212 216 221 226 229 233 238 237 236 233 232 233 239 242 245 244 244 242 239 234 231 236 238 234 228 230 232 231 227 226 221 222 216 200
243 227 221 218 219 215 214 208 206 208 212 219 225 232 236 239 239 238 237 236 235 236 242 247 249 249 248 243 242 242 240 240 233 225 224 225 218 221 221 223 224 217 217
248 239 231 227 225 216 214 210 203 204 210 216 222 230 235 238 243 243 244 246 245 241 243 247 248 248 250 251 247 246 244 238 233 230 226 228 222 222 216 217 218 213 217
276 257 232 220 214 214 213 215 205 202 210 217 220 227 234 239 243 244 243 246 245 246 246 248 249 250 251 250 253 254 251 239 235 235 236 237 230 219 207 207 202 201 199
278 258 231 216 205 203 201 204 209 211 210 211 220 221 226 229 234 237 238 244 251 254 253 252 249 251 253 252 254 254 255 254 235 237 246 242 231 214 211 203 204 196 199
308 255 213 198 198 193 184 159 171 213 217 226 231 231 212 226 193 204 217 235 246 241 256 245 240 241 243 248 244 245 248 248 245 246 243 243 242 221 214 204 190 182 186
327 273 231 221 204 193 190 177 137 113 129 127 151 168 169 203 234 257 268 262 264 262 250 256 238 234 242 245 246 244 247 255 258 253 253 250 248 241 230 210 175 152 182
305 298 293 226 203 198 201 195 169 153 137 103 89 88 82 71 44 349 295 283 287 297 259 262 265 287 282 273 269 265 262 262 260 266 304 23 300 358 10 155 141 167 192
308 21 109 106 108 106 111 110 122 130 125 123 111 83 67 52 49 49 49 63 63 49 346 286 305 294 284 281 276 270 265 259 251 238 174 198 96 107 106 109 169 178 163
284 119 122 123 119 112 108 108 112 117 119 115 102 88 93 64 64 67 71 82 85 77 20 275 297 284 285 282 285 288 278 266 251 219 236 229 200 179 165 161 174 162 162
219 175 159 146 136 128 127 128 128 124 117 120 103 90 81 83 77 69 58 70 51 320 302 296 299 299 301 296 281 263 242 211 224 258 260 200 182 148 141 145 158 162 160
205 194 171 107 102 107 91 86 80 84 81 97 88 76 73 72 63 30 294 290 305 313 288 291 297 307 303 296 280 269 257 258 260 237 181 171 174 164 162 165 166 164 172
111 114 115 105 99 94 89 88 87 84 79 76 79 76 79 67 66 33 345 338 324 289 290 287 315 311 312 299 284 279 264 241 229 202 184 183 175 165 174 178 172 172 172
81 85 96 99 97 95 89 88 90 90 87 79 74 63 61 55 49 45 50 41 14 353 356 292 313 14 293 304 281 213 255 269 217 214 215 201 193 187 205 191 188 185 176
70 74 72 86 90 87 81 77 78 78 78 74 70 72 71 68 58 51 46 44 48 64 31 26 335 349 302 308 200 197 227 249 221 220 197 201 196 199 191 169 173 175 184
55 58 74 77 75 80 83 81 76 70 65 57 53 58 62 61 60 54 49 47 45 42 40 41 43 347 296 309 253 263 274 215 205 203 197 185 175 173 175 173 172 174 183